Location: Doverdale
(52.2833°N, 2.2000°W)
Time: 12:12:03
(UTC+00:00)

Cosmos 2228 - Pass Details

Date: 29 October 2020
Orbit: 590 x 617 km, 82.5° (Epoch: 24 November)

Event Time Altitude Azimuth Distance (km) Brightness Sun altitude
Rises 17:23:34 0° 180° (S) 2,818 6.6 -6.5°
Reaches altitude 10° 17:25:46 10° 177° (S) 1,924 5.7 -6.8°
Maximum altitude 17:29:58 63° 96° (E) 669 3.0 -7.5°
Drops below altitude 10° 17:34:14 10° 16° (NNE) 1,955 5.4 -8.1°
Sets 17:36:29 0° 14° (NNE) 2,867 6.2 -8.4°
